Time,TemperatureF,DewpointF,PressureIn,WindDirection,WindDirectionDegrees,WindSpeedMPH,WindSpeedGustMPH,Humidity,HourlyPrecipIn,Conditions,Clouds,dailyrainin,SolarRadiationWatts/m^2,SoftwareType,DateUTC
2013-02-20 00:02:00,44.0,43.0,-100.00,South,187,8.0,20.0,97,0.19,,,0.50,0.000000,,2013-02-20 05:02:00,
2013-02-20 00:43:00,43.0,42.0,-100.00,SW,216,7.0,12.0,97,0.08,,,0.58,0.000000,,2013-02-20 05:43:00,
2013-02-20 00:52:00,43.0,42.0,-100.00,SW,216,7.0,12.0,97,0.08,,,0.58,0.000000,,2013-02-20 05:52:00,
2013-02-20 01:02:00,43.0,42.0,-100.00,SW,216,7.0,12.0,97,0.08,,,0.58,0.000000,,2013-02-20 06:02:00,
2013-02-20 01:11:00,43.0,42.0,-100.00,SW,216,7.0,12.0,97,0.08,,,0.58,0.000000,,2013-02-20 06:11:00,
2013-02-20 01:42:00,43.0,42.0,-100.00,SW,224,5.0,11.0,98,0.03,,,0.61,0.000000,,2013-02-20 06:42:00,
2013-02-20 01:52:00,43.0,42.0,-100.00,SW,224,5.0,11.0,98,0.03,,,0.61,0.000000,,2013-02-20 06:52:00,
2013-02-20 02:02:00,43.0,42.0,-100.00,SW,224,5.0,11.0,98,0.03,,,0.61,0.000000,,2013-02-20 07:02:00,
2013-02-20 02:11:00,43.0,42.0,-100.00,SW,224,5.0,11.0,98,0.03,,,0.61,0.000000,,2013-02-20 07:11:00,
2013-02-20 03:42:00,41.0,40.0,-100.00,SW,227,8.0,16.0,97,-99.99,,,0.61,0.000000,,2013-02-20 08:42:00,
2013-02-20 03:52:00,41.0,40.0,-100.00,SW,227,8.0,16.0,97,-99.99,,,0.61,0.000000,,2013-02-20 08:52:00,
2013-02-20 04:02:00,41.0,40.0,-100.00,SW,227,8.0,16.0,97,-99.99,,,0.61,0.000000,,2013-02-20 09:02:00,
2013-02-20 04:11:00,41.0,40.0,-100.00,SW,227,8.0,16.0,97,-99.99,,,0.61,0.000000,,2013-02-20 09:11:00,
2013-02-20 04:12:00,38.0,37.0,-100.00,SW,228,7.0,19.0,97,0.00,,,0.61,0.000000,,2013-02-20 09:12:00,
2013-02-20 04:32:00,38.0,37.0,-100.00,SW,228,7.0,19.0,97,0.00,,,0.61,0.000000,,2013-02-20 09:32:00,
2013-02-20 04:42:00,38.0,37.0,-100.00,SW,228,7.0,19.0,97,0.00,,,0.61,0.000000,,2013-02-20 09:42:00,
2013-02-20 04:52:00,38.0,37.0,-100.00,SW,228,7.0,19.0,97,0.00,,,0.61,0.000000,,2013-02-20 09:52:00,
2013-02-20 05:01:00,38.0,37.0,-100.00,SW,228,7.0,19.0,97,0.00,,,0.61,0.000000,,2013-02-20 10:01:00,
2013-02-20 05:32:00,38.0,37.0,-100.00,SW,222,9.0,17.0,97,0.00,,,0.61,0.000000,,2013-02-20 10:32:00,
2013-02-20 05:42:00,38.0,37.0,-100.00,SW,222,9.0,17.0,97,0.00,,,0.61,0.000000,,2013-02-20 10:42:00,
2013-02-20 05:52:00,38.0,37.0,-100.00,SW,222,9.0,17.0,97,0.00,,,0.61,0.000000,,2013-02-20 10:52:00,
2013-02-20 06:02:00,38.0,37.0,-100.00,SW,222,9.0,17.0,97,0.00,,,0.61,0.000000,,2013-02-20 11:02:00,
2013-02-20 06:11:00,38.0,37.0,-100.00,SW,222,9.0,17.0,97,0.00,,,0.61,0.000000,,2013-02-20 11:11:00,
2013-02-20 06:12:00,37.0,36.0,-100.00,WSW,241,7.0,16.0,95,0.00,,,0.61,0.000000,,2013-02-20 11:12:00,
2013-02-20 06:42:00,37.0,36.0,-100.00,WSW,241,7.0,16.0,95,0.00,,,0.61,0.000000,,2013-02-20 11:42:00,
2013-02-20 06:52:00,37.0,36.0,-100.00,WSW,241,7.0,16.0,95,0.00,,,0.61,0.000000,,2013-02-20 11:52:00,
2013-02-20 07:02:00,37.0,36.0,-100.00,WSW,241,7.0,16.0,95,0.00,,,0.61,0.000000,,2013-02-20 12:02:00,
2013-02-20 07:12:00,34.0,29.0,-100.00,WSW,256,6.0,14.0,83,0.00,,,0.61,28.000000,,2013-02-20 12:12:00,
2013-02-20 07:32:00,34.0,29.0,-100.00,WSW,256,6.0,14.0,83,0.00,,,0.61,28.000000,,2013-02-20 12:32:00,
2013-02-20 07:42:00,34.0,29.0,-100.00,WSW,256,6.0,14.0,83,0.00,,,0.61,28.000000,,2013-02-20 12:42:00,
2013-02-20 07:53:00,34.0,29.0,-100.00,WSW,256,6.0,14.0,83,0.00,,,0.61,28.000000,,2013-02-20 12:53:00,
2013-02-20 08:01:00,34.0,29.0,-100.00,WSW,256,6.0,14.0,83,0.00,,,0.61,28.000000,,2013-02-20 13:01:00,
2013-02-20 09:12:00,34.0,25.0,-100.00,WSW,248,5.0,16.0,70,-99.99,,,0.61,125.000000,,2013-02-20 14:12:00,
2013-02-20 09:42:00,34.0,25.0,-100.00,WSW,248,5.0,16.0,70,-99.99,,,0.61,125.000000,,2013-02-20 14:42:00,
2013-02-20 09:52:00,34.0,25.0,-100.00,WSW,248,5.0,16.0,70,-99.99,,,0.61,125.000000,,2013-02-20 14:52:00,
2013-02-20 10:02:00,34.0,25.0,-100.00,WSW,248,5.0,16.0,70,-99.99,,,0.61,125.000000,,2013-02-20 15:02:00,
2013-02-20 10:12:00,37.0,24.0,-100.00,WSW,256,7.0,21.0,59,0.00,,,0.61,536.000000,,2013-02-20 15:12:00,
2013-02-20 10:42:00,37.0,24.0,-100.00,WSW,256,7.0,21.0,59,0.00,,,0.61,536.000000,,2013-02-20 15:42:00,
2013-02-20 10:52:00,37.0,24.0,-100.00,WSW,256,7.0,21.0,59,0.00,,,0.61,536.000000,,2013-02-20 15:52:00,
2013-02-20 11:01:00,37.0,24.0,-100.00,WSW,256,7.0,21.0,59,0.00,,,0.61,536.000000,,2013-02-20 16:01:00,
2013-02-20 11:42:00,39.0,22.0,-100.00,WSW,256,7.0,15.0,50,0.00,,,0.61,835.000000,,2013-02-20 16:42:00,
2013-02-20 11:52:00,39.0,22.0,-100.00,WSW,256,7.0,15.0,50,0.00,,,0.61,835.000000,,2013-02-20 16:52:00,
2013-02-20 12:01:00,39.0,22.0,-100.00,WSW,256,7.0,15.0,50,0.00,,,0.61,835.000000,,2013-02-20 17:01:00,
2013-02-20 12:11:00,39.0,22.0,-100.00,WSW,256,7.0,15.0,50,0.00,,,0.61,835.000000,,2013-02-20 17:11:00,
2013-02-20 12:42:00,39.0,20.0,-100.00,WSW,244,9.0,20.0,47,0.00,,,0.61,920.000000,,2013-02-20 17:42:00,
2013-02-20 12:52:00,39.0,20.0,-100.00,WSW,244,9.0,20.0,47,0.00,,,0.61,920.000000,,2013-02-20 17:52:00,
2013-02-20 13:02:00,39.0,20.0,-100.00,WSW,244,9.0,20.0,47,0.00,,,0.61,920.000000,,2013-02-20 18:02:00,
2013-02-20 13:11:00,39.0,20.0,-100.00,WSW,244,9.0,20.0,47,0.00,,,0.61,920.000000,,2013-02-20 18:11:00,
2013-02-20 13:32:00,39.0,19.0,-100.00,West,262,7.0,20.0,44,0.00,,,0.61,886.000000,,2013-02-20 18:32:00,
2013-02-20 13:42:00,39.0,19.0,-100.00,West,262,7.0,20.0,44,0.00,,,0.61,886.000000,,2013-02-20 18:42:00,
2013-02-20 13:52:00,39.0,19.0,-100.00,West,262,7.0,20.0,44,0.00,,,0.61,886.000000,,2013-02-20 18:52:00,
2013-02-20 14:01:00,39.0,19.0,-100.00,West,262,7.0,20.0,44,0.00,,,0.61,886.000000,,2013-02-20 19:01:00,
2013-02-20 14:11:00,39.0,19.0,-100.00,West,262,7.0,20.0,44,0.00,,,0.61,886.000000,,2013-02-20 19:11:00,
2013-02-20 14:32:00,36.0,19.0,-100.00,West,264,6.0,19.0,49,0.00,,,0.61,410.000000,,2013-02-20 19:32:00,
2013-02-20 14:42:00,36.0,19.0,-100.00,West,264,6.0,19.0,49,0.00,,,0.61,410.000000,,2013-02-20 19:42:00,
2013-02-20 14:52:00,36.0,19.0,-100.00,West,264,6.0,19.0,49,0.00,,,0.61,410.000000,,2013-02-20 19:52:00,
2013-02-20 15:01:00,36.0,19.0,-100.00,West,264,6.0,19.0,49,0.00,,,0.61,410.000000,,2013-02-20 20:01:00,
2013-02-20 15:11:00,36.0,19.0,-100.00,West,264,6.0,19.0,49,0.00,,,0.61,410.000000,,2013-02-20 20:11:00,
2013-02-20 15:41:00,36.0,15.0,-100.00,WSW,249,7.0,17.0,41,0.00,,,0.61,505.000000,,2013-02-20 20:41:00,
2013-02-20 15:52:00,36.0,15.0,-100.00,WSW,249,7.0,17.0,41,0.00,,,0.61,505.000000,,2013-02-20 20:52:00,
2013-02-20 16:01:00,36.0,15.0,-100.00,WSW,249,7.0,17.0,41,0.00,,,0.61,505.000000,,2013-02-20 21:01:00,
2013-02-20 16:11:00,36.0,15.0,-100.00,WSW,249,7.0,17.0,41,0.00,,,0.61,505.000000,,2013-02-20 21:11:00,
2013-02-20 16:42:00,35.0,16.0,-100.00,WSW,258,6.0,15.0,45,0.00,,,0.61,191.000000,,2013-02-20 21:42:00,
2013-02-20 16:52:00,35.0,16.0,-100.00,WSW,258,6.0,15.0,45,0.00,,,0.61,191.000000,,2013-02-20 21:52:00,
2013-02-20 17:02:00,35.0,16.0,-100.00,WSW,258,6.0,15.0,45,0.00,,,0.61,191.000000,,2013-02-20 22:02:00,
2013-02-20 17:11:00,35.0,16.0,-100.00,WSW,258,6.0,15.0,45,0.00,,,0.61,191.000000,,2013-02-20 22:11:00,
2013-02-20 17:12:00,32.0,13.0,-100.00,WSW,251,8.0,22.0,45,0.00,,,0.61,88.000000,,2013-02-20 22:12:00,
2013-02-20 17:43:00,32.0,13.0,-100.00,WSW,251,8.0,22.0,45,0.00,,,0.61,88.000000,,2013-02-20 22:43:00,
2013-02-20 17:52:00,32.0,13.0,-100.00,WSW,251,8.0,22.0,45,0.00,,,0.61,88.000000,,2013-02-20 22:52:00,
2013-02-20 18:01:00,32.0,13.0,-100.00,WSW,251,8.0,22.0,45,0.00,,,0.61,88.000000,,2013-02-20 23:01:00,
2013-02-20 18:32:00,30.0,11.0,-100.00,West,268,6.0,18.0,44,0.00,,,0.61,1.000000,,2013-02-20 23:32:00,
2013-02-20 18:42:00,30.0,11.0,-100.00,West,268,6.0,18.0,44,0.00,,,0.61,1.000000,,2013-02-20 23:42:00,
2013-02-20 18:53:00,30.0,11.0,-100.00,West,268,6.0,18.0,44,0.00,,,0.61,1.000000,,2013-02-20 23:53:00,
2013-02-20 19:03:00,30.0,11.0,-100.00,West,268,6.0,18.0,44,0.00,,,0.61,1.000000,,2013-02-21 00:03:00,
2013-02-20 19:11:00,30.0,11.0,-100.00,West,268,6.0,18.0,44,0.00,,,0.61,1.000000,,2013-02-21 00:11:00,
2013-02-20 19:32:00,29.0,10.0,-100.00,West,261,7.0,16.0,45,0.00,,,0.60,0.000000,,2013-02-21 00:32:00,
2013-02-20 19:42:00,29.0,10.0,-100.00,West,261,7.0,16.0,45,0.00,,,0.60,0.000000,,2013-02-21 00:42:00,
2013-02-20 19:52:00,29.0,10.0,-100.00,West,261,7.0,16.0,45,0.00,,,0.60,0.000000,,2013-02-21 00:52:00,
2013-02-20 20:01:00,29.0,10.0,-100.00,West,261,7.0,16.0,45,0.00,,,0.60,0.000000,,2013-02-21 01:01:00,
2013-02-20 20:11:00,29.0,10.0,-100.00,West,261,7.0,16.0,45,0.00,,,0.60,0.000000,,2013-02-21 01:11:00,
2013-02-20 20:32:00,28.0,10.0,-100.00,WSW,252,8.0,17.0,47,0.00,,,0.60,0.000000,,2013-02-21 01:32:00,
2013-02-20 20:42:00,28.0,10.0,-100.00,WSW,252,8.0,17.0,47,0.00,,,0.60,0.000000,,2013-02-21 01:42:00,
2013-02-20 20:52:00,28.0,10.0,-100.00,WSW,252,8.0,17.0,47,0.00,,,0.60,0.000000,,2013-02-21 01:52:00,
2013-02-20 21:02:00,28.0,10.0,-100.00,WSW,252,8.0,17.0,47,0.00,,,0.60,0.000000,,2013-02-21 02:02:00,
2013-02-20 21:11:00,28.0,10.0,-100.00,WSW,252,8.0,17.0,47,0.00,,,0.60,0.000000,,2013-02-21 02:11:00,
2013-02-20 21:12:00,28.0,11.0,-100.00,WSW,256,6.0,15.0,48,0.00,,,0.56,0.000000,,2013-02-21 02:12:00,
2013-02-20 21:32:00,28.0,11.0,-100.00,WSW,256,6.0,15.0,48,0.00,,,0.56,0.000000,,2013-02-21 02:32:00,
2013-02-20 21:42:00,28.0,11.0,-100.00,WSW,256,6.0,15.0,48,0.00,,,0.56,0.000000,,2013-02-21 02:42:00,
2013-02-20 21:52:00,28.0,11.0,-100.00,WSW,256,6.0,15.0,48,0.00,,,0.56,0.000000,,2013-02-21 02:52:00,
2013-02-20 22:02:00,28.0,11.0,-100.00,WSW,256,6.0,15.0,48,0.00,,,0.56,0.000000,,2013-02-21 03:02:00,
2013-02-20 22:42:00,28.0,13.0,-100.00,WSW,250,8.0,16.0,52,0.00,,,0.30,0.000000,,2013-02-21 03:42:00,
2013-02-20 22:52:00,28.0,13.0,-100.00,WSW,250,8.0,16.0,52,0.00,,,0.30,0.000000,,2013-02-21 03:52:00,
2013-02-20 23:01:00,28.0,13.0,-100.00,WSW,250,8.0,16.0,52,0.00,,,0.30,0.000000,,2013-02-21 04:01:00,
2013-02-20 23:11:00,28.0,13.0,-100.00,WSW,250,8.0,16.0,52,0.00,,,0.30,0.000000,,2013-02-21 04:11:00,
2013-02-20 23:12:00,28.0,14.0,-100.00,WSW,252,9.0,23.0,55,0.00,,,0.11,0.000000,,2013-02-21 04:12:00,
2013-02-20 23:32:00,28.0,14.0,-100.00,WSW,252,9.0,23.0,55,0.00,,,0.11,0.000000,,2013-02-21 04:32:00,
2013-02-20 23:42:00,28.0,14.0,-100.00,WSW,252,9.0,23.0,55,0.00,,,0.11,0.000000,,2013-02-21 04:42:00,
2013-02-20 23:52:00,28.0,14.0,-100.00,WSW,252,9.0,23.0,55,0.00,,,0.11,0.000000,,2013-02-21 04:52:00,